Location: Campo Alegre
(10.1673°N, 67.4431°W)
Time: 14:04:49
(UTC+00:00)

Cosmos 1470 Rocket - Pass Details

Date: 14 April 2024
Orbit: 601 x 629 km, 82.5° (Epoch: 28 May)

Event Time Altitude Azimuth Distance (km) Brightness Sun altitude
Rises 09:34:10 0° 338° (NNW) 2,888 6.9 -11.8°
Reaches altitude 10° 09:36:36 10° 327° (NNW) 1,987 6.0 -11.2°
Maximum altitude 09:40:24 29° 268° (W) 1,156 4.4 -10.3°
Drops below altitude 10° 09:44:13 10° 208° (SSW) 1,998 5.8 -9.4°
Sets 09:46:42 0° 196° (SSW) 2,906 6.7 -8.8°
